Regional Weather Roundup
Issued by NWS

Home | Current Version | Previous Version | Text Only | Print | Product List | Glossary Off
Versions: 1 2 3 4 5 6 7 8 9 10 11 12 13 14 15 16 17 18 19 20 21 22 23 24 25 26 27 28 29 30 31 32 33 34 35 36 37 38 39 40 41 42 43 44 45 46 47 48 49 50

000
ASUS43 KMKX 220221
RWRWI

WISCONSIN REGIONAL WEATHER ROUNDUP
NATIONAL WEATHER SERVICE MILWAUKEE/SULLIVAN WI
900 PM CDT WED JUN 21 2017

NOTE: "FAIR" INDICATES FEW OR NO CLOUDS BELOW 12,000 FEET WITH NO
SIGNIFICANT WEATHER AND/OR OBSTRUCTIONS TO VISIBILITY.

WIZ001-002-006>008-014>016-023>028-220300-
NORTHWEST WISCONSIN

CITY           SKY/WX    TMP DP  RH WIND       PRES   REMARKS
SUPERIOR ARPT  NOT AVBL
ASHLAND        PTCLDY    59  49  69 N6        29.77F
HAYWARD        CLEAR     68  53  58 SE6       29.76F
SIREN          CLOUDY    71  53  52 CALM      29.73F
CUMBERLAND     CLEAR     66  52  59 SE8       29.76F
RICE LAKE      CLEAR     71  53  52 SE7       29.77F
CHETEK         CLEAR     69  56  63 SE3       29.77F
LADYSMITH      CLEAR     70  56  61 S6        29.81S
EAU CLAIRE     CLOUDY    73  55  53 S9        29.78S
MENOMONIE      CLEAR     70  56  60 SE8       29.78R
NEW RICHMOND   CLEAR     72  56  58 S10       29.76R
OSCEOLA        CLEAR     72  58  61 SE9       29.76S
$$

WIZ003>005-009-010-017-018-220300-
NORTH CENTRAL WISCONSIN

CITY           SKY/WX    TMP DP  RH WIND       PRES   REMARKS
MANITOWISH WTR MOCLDY    65  54  66 S7        29.82S
ARBOR VITAE    CLEAR     67  54  62 S6        29.83S
WOODRUFF       CLEAR     67  54  62 S6        29.83S
RHINELANDER    CLEAR     67  54  63 CALM      29.85F
EAGLE RIVER    CLEAR     65  50  56 S5        29.84S
LAND O LAKES   PTCLDY    62  53  71 CALM      29.86S
PHILLIPS       PTCLDY    67  55  66 S5        29.80F
TOMAHAWK       NOT AVBL
MEDFORD        CLEAR     64  56  73 SE5       29.83S
MERRILL        CLEAR     67  56  66 S3        29.84F
$$

WIZ029-030-035-036-043>047-220300-
CENTRAL WISCONSIN

CITY           SKY/WX    TMP DP  RH WIND       PRES   REMARKS
WAUSAU         CLEAR     68  55  63 S7        29.83S
MOSINEE        PTCLDY    66  55  68 S7        29.86F
MARSHFIELD     CLOUDY    68  54  60 S7        29.83S
STEVENS POINT  PTCLDY    68  54  60 S8        29.86R
WAUPACA        CLEAR     68  56  65 SE5       29.86S
WAUTOMA        CLOUDY    70  58  65 MISG      29.86S
WISC RAPIDS    MOCLDY    69  56  62 SE5       29.85F
CAMP DOUGLAS   MOCLDY    68  59  73 SE6       29.83F
$$

WIZ011>013-019>022-031-037>040-048>050-220300-
NORTHEAST WISCONSIN

CITY           SKY/WX    TMP DP  RH WIND       PRES   REMARKS
ANTIGO         PTCLDY    62  56  81 S6        29.87S
SHAWANO        CLEAR     70  56  60 CALM      29.86S
OCONTO         CLEAR     67  58  73 S6        29.86S
STURGEON BAY     N/A     63  52  67 S9          N/A
GREEN BAY      CLEAR     70  57  63 S7        29.87R
MANITOWOC      PTCLDY    65  48  54 S9        29.90S
APPLETON       PTCLDY    70  50  49 S7        29.86S
CLINTONVILLE   CLEAR     68  52  56 S5        29.86S
OSHKOSH        CLOUDY    67  56  67 S6        29.87S
$$

WIZ032>034-041-042-053>061-220300-
SOUTHWEST WISCONSIN

CITY           SKY/WX    TMP DP  RH WIND       PRES   REMARKS
LA CROSSE      CLOUDY    74  58  57 SE7       29.79F
SPARTA         CLOUDY    71  56  59 SE5       29.83S
VIROQUA        CLOUDY    69  58  70 SE8       29.83F
BOSCOBEL       MOCLDY    72  59  63 CALM      29.83F
PRAIRIE DU CHI PTCLDY    71  59  66 E7        29.80F
PLATTEVILLE    CLOUDY    70  64  81 SE8       29.85S
$$

WIZ056-057-062-063-064-067-068-220300-
SOUTH CENTRAL WISCONSIN

CITY           SKY/WX    TMP DP  RH WIND       PRES   REMARKS
REEDSBURG      CLOUDY    69  57  66 E5        29.84F
BARABOO/DELLS  MOCLDY    67  56  68 SE6       29.86S
LONE ROCK      CLOUDY    68  62  81 E5        29.84S
MINERAL POINT  CLOUDY    70  63  78 SE7       29.86S
MADISON        MOCLDY    72  57  59 S6        29.87R
MIDDLETON      PTCLDY    73  56  56 S7        29.87S
WATERTOWN      CLOUDY    66  56  69 SE6       29.88S
MONROE         CLOUDY    70  61  73 S8        29.86F
JANESVILLE     MOCLDY    73  55  53 VRB6      29.88F
$$

WIZ051-052-058>065-066-070>072-220300-
SOUTHEAST WISCONSIN

CITY           SKY/WX    TMP DP  RH WIND       PRES   REMARKS
MILWAUKEE      MOCLDY    66  55  67 S6        29.91R
WAUKESHA       PTCLDY    66  48  52 SE7       29.91S
MILWAUKEE/TIMM NOT AVBL
RACINE         CLOUDY    66  56  70 S6        29.92S
KENOSHA        MOCLDY    66  57  72 SE6       29.91S
FOND DU LAC    CLOUDY    70  54  56 SE9       29.88S
SHEBOYGAN      CLOUDY    65  51  60 SE6       29.89F
WEST BEND      CLOUDY    63  48  59 E3        29.90S
JUNEAU         CLOUDY    67  54  61 SE7       29.90S
$$

LSZ147-162-220300-
LAKE SUPERIOR

STATION/POSITION TIME  TEMP    WIND        PRES    WAVE
                       AIR SEA DIR/SP/G            HT/PER
                 (UTC) (F)     (DEG/KT/KT) (MB)    (FT/S)
W MID LAKE BUOY  0150   45 39  100/  8/ 10 1008.5F   0
DEVILS ISLAND    0200   57     130/ 13/ 15 1008.2R
PORT WING        0200   64     120/  8/ 21 1007.1
SAXON HARBOR     0130   63     200/  6/  8 1007.5F
$$

LMZ867-665-643>646-220300-
LAKE MICHIGAN

STATION/POSITION TIME  TEMP    WIND        PRES    WAVE
                       AIR SEA DIR/SP/G            HT/PER
                 (UTC) (F)     (DEG/KT/KT) (MB)    (FT/S)
CHAMBERS ISLAND  0130   65     130/  6/ 12 1011.2F
N MID LAKE BUOY  0150   59 55  190/ 10/ 10 1013.3R   1
NORTHPORT PIER   0140   63     170/  7/ 12 1011.9F
KEWAUNEE LAKESHO 0154   58     180/  8/ 10 1011.9F
SHEBOYGAN LAKESH 0200   62     180/ 11/ 12 1012.0F
PORT WASHINGTON  0130   61      CALM  /  3 1013.2F
ATWATER BUOY     0109   60 55  180/  4/  4 1012.6F
MILWAUKEE LAKESH 0200   62     180/  6/  6   N/A
S MID LAKE BUOY  0150   64 62   80/  8/  8 1012.8F   0
KENOSHA   LAKESH 0200   63     190/  4/  5 1012.5
$$

TC  - TEMPERATURE IN CELSIUS
VSB - VISIBILITY IN STATUTE MILES
WCI - WIND CHILL INDEX
HX  - HEAT INDEX





USA.gov is the U.S. government's official web portal to all federal, state and local government web resources and services.